period_start,C,m1,H,J0,J1,J2,J3,J4,J5,JA,JB,JC,JD,JJ,JK,JN,#
2018-01-27 00:01:32,0.14,5.56,0.00,26.20,26.27,29.16,13.73,46.33,1028.82,2027.00,1819.28,1952.26,2183.26,600.20,597.02,52.31,0000 0000 0000 0000 000000
2018-01-27 00:06:33,0.16,5.57,0.00,26.19,26.27,29.16,13.73,46.31,1028.82,2027.00,1817.85,1951.13,2181.93,599.85,596.62,52.36,0000 0000 0000 0000 000000
2018-01-27 00:11:35,0.17,5.58,0.00,26.22,26.27,29.15,13.77,46.32,1028.82,2027.00,1816.33,1949.86,2180.65,599.82,596.51,52.41,0000 0000 0000 0000 000000
2018-01-27 00:16:36,0.19,5.58,0.00,26.19,26.26,29.15,13.77,46.32,1028.82,2027.00,1814.53,1948.62,2179.37,600.31,597.10,52.46,0000 0000 0000 0000 000000
2018-01-27 00:21:37,0.15,5.59,0.00,26.19,26.25,29.13,13.71,46.32,1028.82,2027.00,1812.87,1947.52,2178.05,599.78,596.57,52.51,0000 0000 0000 0000 000000
2018-01-27 00:26:38,0.16,5.60,0.00,26.22,26.25,29.16,13.80,46.37,1028.82,2027.00,1811.62,1946.37,2176.73,600.20,597.02,52.56,0000 0000 0000 0000 000000
2018-01-27 00:31:39,0.14,5.61,0.00,26.22,26.25,29.15,13.73,46.41,1028.82,2027.00,1810.35,1945.28,2175.41,599.72,596.48,52.61,0000 0000 0000 0000 000000
2018-01-27 00:36:40,0.15,5.62,0.00,26.20,26.25,29.14,13.85,46.35,1028.81,2027.00,1808.87,1944.01,2174.06,600.38,597.10,52.66,0000 0000 0000 0000 000000
2018-01-27 00:41:42,0.18,5.63,0.00,26.23,26.25,29.15,13.72,46.39,1028.70,2027.00,1807.53,1942.82,2172.65,599.93,596.54,52.71,0000 0000 0000 0000 000000
2018-01-27 00:46:43,0.17,5.63,0.00,26.26,26.25,29.15,13.79,46.35,1028.42,2027.00,1805.96,1941.63,2171.40,600.01,596.37,52.76,0000 0000 0000 0000 000000
2018-01-27 00:51:44,0.16,5.64,0.00,26.25,26.25,29.16,13.79,46.38,1028.38,2026.99,1804.45,1940.43,2169.96,600.15,596.47,52.81,0000 0000 0000 0000 000000
2018-01-27 00:56:46,0.17,5.65,0.00,26.25,26.27,29.18,13.81,46.43,1028.37,2026.99,1802.94,1939.25,2168.64,600.04,596.37,52.86,0000 0000 0000 0000 000000
2018-01-27 01:01:47,0.16,5.66,0.00,26.22,26.27,29.19,13.75,46.41,1028.38,2026.98,1801.44,1937.97,2167.26,600.18,596.57,52.91,0000 0000 0000 0000 000000
2018-01-27 01:06:48,0.17,5.67,0.00,26.28,26.29,29.20,13.68,46.42,1028.36,2026.95,1799.96,1936.80,2165.83,600.02,596.41,52.96,0000 0000 0000 0000 000000
2018-01-27 01:11:50,0.17,5.68,0.00,26.21,26.30,29.20,13.78,46.39,1028.35,2026.93,1798.42,1935.64,2164.57,600.33,596.68,53.01,0000 0000 0000 0000 000000
2018-01-27 01:16:51,0.17,5.69,0.00,26.21,26.29,29.20,13.73,46.44,1028.36,2026.92,1796.71,1934.48,2163.35,599.78,596.24,53.06,0000 0000 0000 0000 000000
2018-01-27 01:21:53,0.15,5.69,0.00,26.21,26.28,29.19,13.75,46.38,1028.35,2026.97,1795.18,1933.36,2162.10,600.47,596.90,53.11,0000 0000 0000 0000 000000
2018-01-27 01:26:54,0.16,5.70,0.00,26.22,26.27,29.21,13.75,46.43,1028.34,2026.98,1793.66,1932.23,2160.86,599.87,596.32,53.16,0000 0000 0000 0000 000000
2018-01-27 01:31:55,0.15,5.71,0.00,26.23,26.27,29.22,13.70,46.33,1028.35,2026.99,1792.33,1931.11,2159.71,599.51,595.91,53.22,0000 0000 0000 0000 000000
2018-01-27 01:36:57,0.16,5.72,0.00,26.22,26.29,29.24,13.77,46.44,1028.34,2026.98,1790.87,1930.00,2158.38,599.83,596.31,53.27,0000 0000 0000 0000 000000
2018-01-27 01:41:58,0.25,5.73,0.00,26.25,26.30,29.21,13.74,46.36,1028.34,2026.98,1788.87,1928.45,2156.66,600.08,596.30,53.32,0000 0000 0000 0000 000000
2018-01-27 01:46:59,0.24,5.74,0.00,26.26,26.32,29.26,13.75,46.53,1028.33,2026.95,1786.62,1926.68,2154.68,600.07,596.33,53.37,0000 0000 0000 0000 000000
2018-01-27 01:52:01,0.17,5.75,0.00,26.27,26.35,29.29,13.69,46.39,1028.32,2026.86,1784.83,1925.32,2153.12,599.61,595.95,53.42,0000 0000 0000 0000 000000
2018-01-27 01:57:02,0.07,5.76,0.00,26.27,26.38,29.31,13.79,46.48,1028.32,2026.34,1783.61,1924.21,2151.71,600.19,596.35,53.47,0000 0000 0000 0000 000000
2018-01-27 02:02:03,0.15,5.77,0.00,26.27,26.40,29.34,13.86,46.50,1028.32,2026.08,1782.09,1922.99,2150.47,600.14,596.42,53.52,0000 0000 0000 0000 000000
2018-01-27 02:07:04,0.16,5.77,0.00,26.28,26.42,29.35,13.80,46.47,1028.33,2026.01,1780.60,1921.84,2149.10,600.00,596.25,53.57,0000 0000 0000 0000 000000
2018-01-27 02:12:06,0.15,5.78,0.00,26.20,26.42,29.39,13.78,46.52,1028.33,2026.00,1779.39,1920.77,2147.83,600.29,596.63,53.62,0000 0000 0000 0000 000000
2018-01-27 02:17:07,0.14,5.79,0.00,26.20,26.43,29.39,13.75,46.46,1028.33,2026.00,1777.92,1919.81,2146.70,599.51,595.99,53.67,0000 0000 0000 0000 000000
2018-01-27 02:22:08,0.16,5.80,0.00,26.23,26.44,29.40,13.78,46.44,1028.22,2026.00,1776.53,1918.77,2145.50,600.10,596.47,53.72,0000 0000 0000 0000 000000
2018-01-27 02:27:09,0.14,5.80,0.00,26.19,26.45,29.42,13.76,46.52,1027.98,2026.00,1775.29,1917.70,2144.38,599.85,596.10,53.77,0000 0000 0000 0000 000000
2018-01-27 02:32:11,0.16,5.81,0.00,26.16,26.45,29.44,13.74,46.54,1027.96,2026.00,1773.80,1916.60,2143.10,599.68,596.20,53.82,0000 0000 0000 0000 000000
2018-01-27 02:37:12,0.16,5.82,0.00,26.18,26.46,29.46,13.84,46.63,1027.97,2026.00,1772.29,1915.52,2141.78,600.23,596.46,53.87,0000 0000 0000 0000 000000
2018-01-27 02:42:13,0.18,5.83,0.00,26.22,26.47,29.44,13.84,46.69,1027.90,2026.00,1770.71,1914.32,2140.50,599.79,595.95,53.92,0000 0000 0000 0000 000000
2018-01-27 02:47:14,0.15,5.84,0.00,26.21,26.50,29.45,13.78,46.59,1027.90,2026.00,1769.39,1913.12,2139.16,600.15,596.35,53.97,0000 0000 0000 0000 000000
2018-01-27 02:52:15,0.18,5.85,0.00,26.23,26.51,29.48,13.75,46.76,1027.87,2025.98,1767.76,1911.94,2137.80,600.19,596.19,54.02,0000 0000 0000 0000 000000
2018-01-27 02:57:16,0.17,5.86,0.00,26.29,26.52,29.49,13.82,46.63,1027.95,2025.94,1766.39,1910.69,2136.43,600.19,596.30,54.07,0000 0000 0000 0000 000000
2018-01-27 03:02:17,0.14,5.86,0.00,26.20,26.52,29.48,13.75,46.54,1028.11,2025.76,1764.82,1909.53,2135.06,600.30,596.64,54.13,0000 0000 0000 0000 000000
2018-01-27 03:07:19,0.20,5.87,0.00,26.23,26.52,29.50,13.75,46.68,1028.14,2025.82,1763.22,1908.38,2133.63,600.01,596.32,54.18,0000 0000 0000 0000 000000
2018-01-27 03:12:20,0.17,5.88,0.00,26.20,26.52,29.51,13.84,46.72,1028.19,2025.78,1761.42,1907.00,2132.28,600.10,596.54,54.23,0000 0000 0000 0000 000000
2018-01-27 03:17:21,0.28,5.89,0.00,26.19,26.52,29.54,13.77,46.68,1028.13,2025.86,1759.35,1905.48,2130.52,599.78,596.19,54.28,0000 0000 0000 0000 000000
2018-01-27 03:22:23,0.37,5.91,0.00,26.18,26.52,29.55,13.75,46.76,1027.95,2025.90,1756.09,1903.10,2127.89,600.08,596.36,54.33,0000 0000 0000 0000 000000
2018-01-27 03:27:24,0.34,5.93,0.00,26.20,26.52,29.53,13.81,46.59,1027.86,2025.83,1752.89,1900.64,2125.16,599.76,595.89,54.38,0000 0000 0000 0000 000000
2018-01-27 03:32:25,0.27,5.94,0.00,26.23,26.53,29.49,13.78,46.71,1027.85,2025.62,1750.25,1898.61,2122.86,600.04,596.21,54.43,0000 0000 0000 0000 000000
2018-01-27 03:37:26,0.23,5.96,0.00,26.25,26.55,29.50,13.75,46.53,1027.85,2025.56,1748.03,1896.86,2120.96,599.96,596.05,54.48,0000 0000 0000 0000 000000
2018-01-27 03:42:28,0.15,5.97,0.00,26.27,26.56,29.53,13.74,46.50,1027.85,2025.10,1746.38,1895.32,2118.92,600.05,596.09,54.53,0000 0000 0000 0000 000000
2018-01-27 03:47:29,0.24,5.98,0.00,26.26,26.57,29.52,13.76,46.33,1027.85,2025.00,1744.34,1893.67,2117.09,600.03,596.11,54.58,0000 0000 0000 0000 000000
2018-01-27 03:52:30,0.21,5.99,0.00,26.25,26.60,29.56,13.81,46.33,1027.85,2025.00,1742.28,1892.05,2115.35,599.83,595.92,54.63,0000 0000 0000 0000 000000
2018-01-27 03:57:32,0.23,6.00,0.00,26.27,26.61,29.58,13.80,46.42,1027.79,2024.99,1740.40,1890.61,2113.69,600.38,596.38,54.68,0000 0000 0000 0000 000000
2018-01-27 04:02:33,0.20,6.01,0.00,26.30,26.63,29.66,13.81,46.27,1027.81,2024.99,1738.60,1889.18,2112.04,600.06,595.99,54.73,0000 0000 0000 0000 000000
2018-01-27 04:07:34,0.23,6.02,0.00,26.31,26.65,29.66,13.75,46.33,1027.78,2024.97,1736.68,1887.67,2110.50,599.98,595.93,54.78,0000 0000 0000 0000 000000
2018-01-27 04:12:36,0.20,6.03,0.00,26.31,26.66,29.69,13.75,46.33,1027.75,2024.92,1734.72,1886.23,2108.94,599.87,595.75,54.83,0000 0000 0000 0000 000000
2018-01-27 04:17:37,0.19,6.04,0.00,26.24,26.67,29.74,13.72,46.43,1027.56,2024.93,1733.04,1884.94,2107.60,600.08,596.09,54.88,0000 0000 0000 0000 000000
2018-01-27 04:22:38,0.19,6.05,0.00,26.18,26.65,29.72,13.79,46.47,1027.42,2024.94,1731.20,1883.69,2106.18,599.97,595.95,54.93,0000 0000 0000 0000 000000
2018-01-27 04:27:39,0.20,6.06,0.00,26.17,26.64,29.68,13.81,46.46,1027.43,2024.97,1729.50,1882.48,2104.76,600.09,596.04,54.98,0000 0000 0000 0000 000000
2018-01-27 04:32:40,0.19,6.07,0.00,26.15,26.62,29.61,13.72,46.43,1027.45,2024.98,1727.71,1881.08,2103.31,599.53,595.56,55.03,0000 0000 0000 0000 000000
2018-01-27 04:37:41,0.19,6.08,0.00,26.15,26.62,29.59,13.85,46.38,1027.66,2024.99,1726.10,1879.80,2101.82,600.08,596.39,55.09,0000 0000 0000 0000 000000
2018-01-27 04:42:43,0.19,6.09,0.00,26.16,26.62,29.64,13.79,46.36,1027.57,2024.99,1724.59,1878.53,2100.44,599.89,595.90,55.14,0000 0000 0000 0000 000000
2018-01-27 04:47:44,0.17,6.10,0.00,26.15,26.62,29.65,13.74,46.27,1027.52,2024.99,1723.01,1877.27,2098.90,600.36,596.44,55.19,0000 0000 0000 0000 000000
2018-01-27 04:52:45,0.17,6.11,0.00,26.16,26.62,29.63,13.85,46.30,1027.40,2024.98,1721.54,1876.12,2097.67,600.29,596.49,55.24,0000 0000 0000 0000 000000
2018-01-27 04:57:47,0.16,6.12,0.00,26.18,26.62,29.67,13.82,46.33,1027.37,2024.98,1720.07,1874.97,2096.48,600.04,595.97,55.29,0000 0000 0000 0000 000000
2018-01-27 05:02:48,0.19,6.13,0.00,26.19,26.65,29.69,13.80,46.30,1027.37,2024.96,1718.58,1873.76,2095.11,599.99,595.89,55.34,0000 0000 0000 0000 000000
2018-01-27 05:07:49,0.16,6.14,0.00,26.21,26.65,29.70,13.77,46.36,1027.38,2024.87,1717.18,1872.62,2093.70,599.61,595.52,55.39,0000 0000 0000 0000 000000
2018-01-27 05:12:51,0.10,6.14,0.00,26.20,26.67,29.71,13.86,46.29,1027.40,2024.43,1715.84,1871.49,2092.37,600.05,595.99,55.44,0000 0000 0000 0000 000000
2018-01-27 05:17:52,0.14,6.15,0.00,26.23,26.68,29.73,13.76,46.31,1027.39,2024.11,1714.34,1870.33,2091.02,599.99,595.83,55.49,0000 0000 0000 0000 000000
2018-01-27 05:22:53,0.15,6.16,0.00,26.24,26.70,29.75,13.77,46.23,1027.42,2024.10,1712.93,1869.22,2089.75,600.01,595.86,55.54,0000 0000 0000 0000 000000
2018-01-27 05:27:54,0.16,6.17,0.00,26.23,26.71,29.79,13.83,46.38,1027.42,2024.01,1711.62,1868.10,2088.53,599.96,595.72,55.59,0000 0000 0000 0000 000000
2018-01-27 05:32:55,0.16,6.18,0.00,26.24,26.72,29.80,13.85,46.37,1027.39,2024.01,1710.17,1866.95,2087.36,600.30,596.08,55.64,0000 0000 0000 0000 000000
2018-01-27 05:37:57,0.18,6.18,0.00,26.24,26.74,29.77,13.82,46.22,1027.40,2024.00,1708.64,1865.83,2086.07,600.06,595.91,55.69,0000 0000 0000 0000 000000
2018-01-27 05:42:58,0.17,6.19,0.00,26.23,26.75,29.78,13.79,46.28,1027.53,2024.00,1707.13,1864.72,2084.85,599.86,595.84,55.74,0000 0000 0000 0000 000000
2018-01-27 05:48:00,0.17,6.20,0.00,26.22,26.76,29.77,13.80,46.24,1027.71,2024.00,1705.71,1863.67,2083.61,600.08,596.09,55.79,0000 0000 0000 0000 000000
2018-01-27 05:53:01,0.16,6.21,0.00,26.25,26.77,29.75,13.81,46.33,1027.69,2024.00,1704.26,1862.56,2082.41,600.01,596.04,55.84,0000 0000 0000 0000 000000
2018-01-27 05:58:02,0.15,6.22,0.00,26.25,26.78,29.80,13.86,46.26,1027.79,2024.00,1702.93,1861.48,2081.23,600.36,596.43,55.89,0000 0000 0000 0000 000000
2018-01-27 06:03:03,0.16,6.23,0.00,26.21,26.80,29.73,13.80,46.29,1027.69,2024.00,1701.57,1860.45,2080.09,599.79,595.82,55.94,0000 0000 0000 0000 000000
2018-01-27 06:08:05,0.15,6.24,0.00,26.22,26.80,29.69,13.72,46.23,1027.61,2024.00,1700.35,1859.44,2078.94,599.93,595.93,56.00,0000 0000 0000 0000 000000
2018-01-27 06:13:06,0.15,6.24,0.00,26.24,26.82,29.69,13.81,46.24,1027.51,2023.99,1699.11,1858.46,2077.74,600.05,595.94,56.05,0000 0000 0000 0000 000000
2018-01-27 06:18:07,0.17,6.25,0.00,26.25,26.82,29.66,13.74,46.28,1027.40,2023.99,1697.68,1857.44,2076.60,599.92,595.70,56.10,0000 0000 0000 0000 000000
2018-01-27 06:23:08,0.15,6.26,0.00,26.25,26.83,29.68,13.76,46.37,1027.39,2023.97,1696.40,1856.37,2075.44,599.89,595.73,56.15,0000 0000 0000 0000 000000
2018-01-27 06:28:10,0.14,6.27,0.00,26.23,26.85,29.74,13.78,46.48,1027.38,2023.98,1695.27,1855.36,2074.24,600.17,596.04,56.20,0000 0000 0000 0000 000000
2018-01-27 06:33:12,0.14,6.27,0.00,26.22,26.85,29.64,13.76,46.38,1027.38,2023.95,1694.00,1854.53,2073.08,599.75,595.65,56.25,0000 0000 0000 0000 000000
2018-01-27 06:38:13,0.15,6.28,0.00,26.19,26.85,29.66,13.71,46.32,1027.38,2023.83,1692.68,1853.52,2071.84,600.00,596.05,56.30,0000 0000 0000 0000 000000
2018-01-27 06:43:15,0.14,6.29,0.00,26.21,26.86,29.64,13.80,46.37,1027.38,2023.69,1691.27,1852.43,2070.70,600.18,595.83,56.35,0000 0000 0000 0000 000000
2018-01-27 06:48:16,0.16,6.30,0.00,26.21,26.87,29.70,13.83,46.44,1027.38,2023.51,1689.81,1851.39,2069.51,600.39,596.28,56.40,0000 0000 0000 0000 000000
2018-01-27 06:53:18,0.13,6.30,0.00,26.20,26.87,29.67,13.83,46.42,1027.38,2023.51,1688.64,1850.39,2068.41,600.10,595.98,56.45,0000 0000 0000 0000 000000
2018-01-27 06:58:19,0.13,6.31,0.00,26.22,26.87,29.69,13.76,46.33,1027.39,2023.24,1687.28,1849.34,2067.21,599.81,595.66,56.50,0000 0000 0000 0000 000000
2018-01-27 07:03:20,0.13,6.32,0.00,26.22,26.87,29.66,13.85,46.41,1027.38,2023.11,1685.87,1848.33,2066.08,600.17,596.10,56.55,0000 0000 0000 0000 000000
2018-01-27 07:08:22,0.16,6.33,0.00,26.23,26.87,29.64,13.72,46.38,1027.39,2023.13,1684.64,1847.35,2064.98,599.68,595.55,56.60,0000 0000 0000 0000 000000
2018-01-27 07:13:23,0.15,6.33,0.00,26.23,26.88,29.63,13.72,46.42,1027.39,2023.17,1683.47,1846.38,2063.87,599.72,595.62,56.65,0000 0000 0000 0000 000000
2018-01-27 07:18:24,0.13,6.34,0.00,26.23,26.89,29.70,13.76,46.40,1027.39,2023.09,1682.16,1845.41,2062.79,599.81,595.62,56.70,0000 0000 0000 0000 000000
2018-01-27 07:23:25,0.14,6.35,0.00,26.20,26.90,29.66,13.80,46.42,1027.41,2023.09,1680.99,1844.47,2061.81,600.23,596.07,56.75,0000 0000 0000 0000 000000
2018-01-27 07:28:26,0.15,6.36,0.00,26.19,26.90,29.62,13.64,46.42,1027.39,2023.06,1679.82,1843.56,2060.73,599.46,595.43,56.80,0000 0000 0000 0000 000000
2018-01-27 07:33:27,0.15,6.36,0.00,26.20,26.90,29.61,13.85,46.44,1027.37,2023.07,1678.60,1842.67,2059.63,600.04,595.94,56.86,0000 0000 0000 0000 000000
2018-01-27 07:38:29,0.13,6.37,0.00,26.16,26.90,29.64,13.77,46.45,1027.36,2023.03,1677.57,1841.76,2058.52,599.95,595.78,56.91,0000 0000 0000 0000 000000
2018-01-27 07:43:30,0.13,6.38,0.00,26.16,26.90,29.64,13.83,46.46,1027.36,2023.03,1676.44,1840.82,2057.44,600.14,596.14,56.96,0000 0000 0000 0000 000000
2018-01-27 07:48:31,0.12,6.38,0.00,26.15,26.90,29.62,13.80,46.45,1027.36,2023.01,1675.33,1839.91,2056.35,600.04,596.14,57.01,0000 0000 0000 0000 000000
2018-01-27 07:53:32,0.14,6.39,0.00,26.17,26.90,29.61,13.79,46.40,1027.36,2023.02,1674.04,1838.96,2055.30,600.30,596.22,57.06,0000 0000 0000 0000 000000
2018-01-27 07:58:33,0.16,6.40,0.00,26.18,26.90,29.58,13.78,46.49,1027.36,2023.01,1672.74,1838.03,2054.26,599.78,595.64,57.11,0000 0000 0000 0000 000000
2018-01-27 08:03:34,0.15,6.41,0.00,26.18,26.89,29.64,13.77,46.45,1027.36,2023.02,1671.58,1837.10,2053.26,599.82,595.73,57.16,0000 0000 0000 0000 000000
2018-01-27 08:08:36,0.14,6.42,0.00,26.17,26.89,29.62,13.82,46.27,1027.36,2023.01,1670.27,1836.13,2052.17,600.06,596.06,57.21,0000 0000 0000 0000 000000
2018-01-27 08:13:37,0.15,6.42,0.00,26.18,26.89,29.59,13.76,46.41,1027.36,2023.01,1668.95,1835.17,2051.14,599.73,595.73,57.26,0000 0000 0000 0000 000000
2018-01-27 08:18:39,0.16,6.43,0.00,26.18,26.89,29.64,13.75,46.40,1027.36,2023.01,1667.68,1834.23,2050.09,599.83,595.75,57.31,0000 0000 0000 0000 000000
2018-01-27 08:23:41,0.15,6.44,0.00,26.17,26.89,29.65,13.75,46.39,1027.36,2023.03,1666.51,1833.28,2049.06,600.17,596.12,57.36,0000 0000 0000 0000 000000
2018-01-27 08:28:42,0.14,6.45,0.00,26.16,26.88,29.64,13.82,46.48,1027.36,2023.01,1665.25,1832.44,2047.98,599.97,595.88,57.41,0000 0000 0000 0000 000000
2018-01-27 08:33:43,0.16,6.45,0.00,26.17,26.89,29.62,13.77,46.52,1027.36,2023.04,1663.82,1831.43,2047.06,599.99,596.00,57.46,0000 0000 0000 0000 000000
2018-01-27 08:38:45,0.14,6.46,0.00,26.17,26.89,29.62,13.74,46.44,1027.36,2023.14,1662.75,1830.57,2046.31,600.13,596.02,57.51,0000 0000 0000 0000 000000
2018-01-27 08:43:46,0.16,6.47,0.00,26.16,26.90,29.63,13.79,46.48,1027.36,2023.19,1661.48,1829.61,2045.23,599.48,595.41,57.56,0000 0000 0000 0000 000000
2018-01-27 08:48:48,0.13,6.48,0.00,26.17,26.90,29.63,13.73,46.43,1027.36,2023.36,1660.53,1828.74,2044.21,599.92,595.97,57.61,0000 0000 0000 0000 000000
2018-01-27 08:53:49,0.13,6.48,0.00,26.17,26.90,29.61,13.81,46.48,1027.34,2023.15,1659.14,1827.72,2043.05,600.19,596.08,57.66,0000 0000 0000 0000 000000
2018-01-27 08:58:51,0.15,6.49,0.00,26.17,26.90,29.64,13.76,46.51,1027.26,2023.06,1657.83,1826.72,2041.90,600.05,595.70,57.71,0000 0000 0000 0000 000000
2018-01-27 09:03:52,0.15,6.50,0.00,26.15,26.90,29.59,13.72,46.55,1027.18,2023.03,1656.66,1825.77,2040.79,599.87,595.76,57.77,0000 0000 0000 0000 000000
2018-01-27 09:08:53,0.14,6.51,0.00,26.17,26.90,29.63,13.81,46.63,1026.97,2023.02,1655.59,1824.80,2039.68,599.97,595.70,57.82,0000 0000 0000 0000 000000
2018-01-27 09:13:55,0.15,6.51,0.00,26.15,26.90,29.58,13.80,46.56,1026.99,2023.00,1654.27,1823.81,2038.55,600.23,596.04,57.87,0000 0000 0000 0000 000000
2018-01-27 09:18:56,0.15,6.52,0.00,26.14,26.90,29.63,13.72,46.54,1026.90,2023.01,1653.04,1822.84,2037.37,599.80,595.65,57.92,0000 0000 0000 0000 000000
2018-01-27 09:23:57,0.17,6.53,0.00,26.13,26.90,29.62,13.74,46.50,1027.07,2023.01,1651.75,1821.82,2036.24,599.78,595.69,57.97,0000 0000 0000 0000 000000
2018-01-27 09:28:59,0.16,6.54,0.00,26.15,26.90,29.63,13.83,46.48,1027.12,2023.00,1650.44,1820.80,2035.11,599.98,595.86,58.02,0000 0000 0000 0000 000000
2018-01-27 09:34:00,0.15,6.55,0.00,26.14,26.90,29.59,13.76,46.51,1027.07,2023.00,1649.04,1819.81,2034.01,599.77,595.72,58.07,0000 0000 0000 0000 000000
2018-01-27 09:39:02,0.17,6.56,0.00,26.13,26.89,29.61,13.78,46.42,1027.18,2023.01,1647.74,1818.82,2032.89,600.17,596.10,58.12,0000 0000 0000 0000 000000
2018-01-27 09:44:03,0.15,6.56,0.00,26.12,26.89,29.59,13.85,46.39,1027.01,2023.00,1646.39,1817.80,2031.85,600.16,595.97,58.17,0000 0000 0000 0000 000000
2018-01-27 09:49:04,0.16,6.57,0.00,26.11,26.88,29.65,13.66,46.56,1026.91,2023.01,1645.02,1816.84,2030.75,599.56,595.38,58.22,0000 0000 0000 0000 000000
2018-01-27 09:54:05,0.14,6.58,0.00,26.10,26.87,29.63,13.78,46.48,1026.89,2023.02,1643.83,1815.93,2029.62,600.38,596.25,58.27,0000 0000 0000 0000 000000
2018-01-27 09:59:07,0.18,6.59,0.00,26.08,26.87,29.57,13.70,46.43,1026.87,2023.01,1642.46,1814.87,2028.46,600.08,595.86,58.32,0000 0000 0000 0000 000000
2018-01-27 10:04:08,0.15,6.60,0.00,26.09,26.87,29.65,13.70,46.46,1026.88,2023.00,1641.15,1813.80,2027.33,599.73,595.54,58.37,0000 0000 0000 0000 000000
2018-01-27 10:09:09,0.18,6.61,0.00,26.09,26.87,29.54,13.74,46.44,1026.88,2023.01,1639.87,1812.77,2026.00,600.37,596.02,58.42,0000 0000 0000 0000 000000
2018-01-27 10:14:11,0.17,6.61,0.00,26.07,26.87,29.55,13.78,46.55,1026.87,2023.01,1638.42,1811.73,2024.84,599.91,595.72,58.47,0000 0000 0000 0000 000000
2018-01-27 10:19:12,0.13,6.62,0.00,26.04,26.86,29.56,13.76,46.53,1026.87,2023.02,1637.09,1810.82,2023.83,600.09,595.99,58.52,0000 0000 0000 0000 000000
2018-01-27 10:24:13,0.14,6.63,0.00,26.05,26.85,29.55,13.75,46.39,1026.87,2023.02,1635.87,1809.92,2022.83,599.59,595.52,58.57,0000 0000 0000 0000 000000
2018-01-27 10:29:15,0.15,6.64,0.00,26.09,26.85,29.60,13.73,46.47,1026.88,2023.03,1634.72,1809.01,2021.81,599.97,595.83,58.63,0000 0000 0000 0000 000000
2018-01-27 10:34:16,0.15,6.65,0.00,26.09,26.85,29.59,13.84,46.53,1026.88,2023.03,1633.57,1808.10,2020.82,600.38,596.28,58.68,0000 0000 0000 0000 000000
2018-01-27 10:39:17,0.14,6.65,0.00,26.06,26.85,29.60,13.75,46.48,1026.88,2023.01,1632.49,1807.27,2019.78,599.84,595.73,58.73,0000 0000 0000 0000 000000
2018-01-27 10:44:19,0.14,6.66,0.00,26.04,26.84,29.54,13.77,46.51,1026.89,2023.01,1631.33,1806.34,2018.78,599.74,595.66,58.78,0000 0000 0000 0000 000000
2018-01-27 10:49:20,0.15,6.67,0.00,26.04,26.83,29.57,13.72,46.41,1026.90,2023.03,1629.99,1805.44,2017.79,600.28,596.22,58.83,0000 0000 0000 0000 000000
2018-01-27 10:54:21,0.14,6.67,0.00,26.05,26.82,29.56,13.74,46.42,1026.96,2023.02,1628.82,1804.57,2016.83,599.74,595.64,58.88,0000 0000 0000 0000 000000
2018-01-27 10:59:23,0.13,6.68,0.00,26.05,26.82,29.55,13.75,46.48,1026.88,2023.02,1627.66,1803.76,2015.96,600.28,596.27,58.93,0000 0000 0000 0000 000000
2018-01-27 11:04:24,0.13,6.69,0.00,26.05,26.82,29.56,13.80,46.49,1026.88,2023.06,1626.52,1802.97,2015.02,600.14,596.09,58.98,0000 0000 0000 0000 000000
2018-01-27 11:09:26,0.16,6.70,0.00,26.04,26.82,29.58,13.78,46.45,1026.87,2023.14,1625.38,1802.10,2014.07,599.98,595.95,59.03,0000 0000 0000 0000 000000
2018-01-27 11:14:27,0.18,6.71,0.00,26.02,26.82,29.55,13.78,46.57,1026.88,2023.35,1624.14,1801.22,2013.22,600.20,596.17,59.08,0000 0000 0000 0000 000000
2018-01-27 11:19:28,0.13,6.71,0.00,26.05,26.82,29.56,13.76,46.60,1026.88,2023.50,1623.29,1800.55,2012.28,599.82,595.75,59.13,0000 0000 0000 0000 000000
2018-01-27 11:24:29,0.11,6.72,0.00,26.05,26.82,29.62,13.79,46.60,1026.87,2023.49,1622.28,1799.80,2011.38,599.83,595.82,59.18,0000 0000 0000 0000 000000
2018-01-27 11:29:30,0.09,6.73,0.00,26.05,26.82,29.66,13.70,46.50,1026.88,2023.23,1621.36,1798.86,2010.27,599.98,595.89,59.23,0000 0000 0000 0000 000000
2018-01-27 11:34:32,0.13,6.73,0.00,26.01,26.82,29.67,13.79,46.58,1026.88,2023.17,1620.15,1797.98,2009.21,599.74,595.74,59.28,0000 0000 0000 0000 000000
2018-01-27 11:39:33,0.13,6.74,0.00,26.00,26.82,29.79,13.88,46.48,1026.87,2023.10,1619.15,1797.03,2008.05,600.44,596.41,59.33,0000 0000 0000 0000 000000
2018-01-27 11:44:34,0.19,6.75,0.00,26.01,26.82,29.82,13.81,46.52,1026.87,2023.04,1617.70,1796.01,2006.88,599.85,595.85,59.38,0000 0000 0000 0000 000000
2018-01-27 11:49:36,0.16,6.76,0.00,26.00,26.82,29.75,13.83,46.48,1026.87,2023.02,1616.41,1795.02,2005.82,600.20,596.09,59.43,0000 0000 0000 0000 000000
2018-01-27 11:54:37,0.16,6.76,0.00,26.00,26.82,29.82,13.81,46.66,1026.87,2023.02,1614.90,1794.03,2004.69,600.33,596.34,59.48,0000 0000 0000 0000 000000
2018-01-27 11:59:38,0.17,6.77,0.00,25.94,26.82,29.81,13.78,46.68,1026.86,2023.03,1613.67,1793.08,2003.69,599.79,595.98,59.53,0000 0000 0000 0000 000000
2018-01-27 12:04:39,0.16,6.78,0.00,25.90,26.82,29.76,13.79,46.55,1026.86,2023.03,1612.38,1792.13,2002.55,600.27,596.43,59.58,0000 0000 0000 0000 000000
2018-01-27 12:09:41,0.15,6.79,0.00,25.91,26.82,29.77,13.79,46.64,1026.86,2023.02,1611.07,1791.19,2001.45,600.07,596.28,59.63,0000 0000 0000 0000 000000
2018-01-27 12:14:42,0.17,6.80,0.00,25.84,26.82,29.76,13.81,46.67,1026.86,2023.01,1609.76,1790.27,2000.32,599.80,596.20,59.69,0000 0000 0000 0000 000000
2018-01-27 12:19:44,0.16,6.80,0.00,25.80,26.82,29.78,13.87,46.62,1026.87,2023.01,1608.54,1789.35,1999.37,600.12,596.59,59.74,0000 0000 0000 0000 000000
2018-01-27 12:24:45,0.15,6.81,0.00,25.79,26.83,29.79,13.84,46.70,1026.87,2023.02,1607.19,1788.38,1998.22,599.98,596.39,59.79,0000 0000 0000 0000 000000
2018-01-27 12:29:46,0.19,6.82,0.00,25.75,26.85,29.82,13.91,46.58,1026.87,2023.01,1605.65,1787.37,1997.09,600.70,597.13,59.84,0000 0000 0000 0000 000000
2018-01-27 12:34:47,0.16,6.83,0.00,25.71,26.85,29.82,13.78,46.60,1026.85,2023.00,1604.26,1786.31,1995.96,599.78,596.38,59.89,0000 0000 0000 0000 000000
2018-01-27 12:39:49,0.17,6.84,0.00,25.66,26.87,29.84,13.77,46.58,1026.87,2023.00,1602.99,1785.31,1994.78,599.67,596.57,59.94,0000 0000 0000 0000 000000
2018-01-27 12:44:50,0.18,6.85,0.00,25.65,26.88,29.89,13.82,46.54,1026.70,2023.00,1601.66,1784.25,1993.56,599.78,596.38,59.99,0000 0000 0000 0000 000000
2018-01-27 12:49:51,0.16,6.86,0.00,25.65,26.90,29.94,13.75,46.54,1026.45,2023.00,1600.38,1783.20,1992.39,599.57,596.06,60.04,0000 0000 0000 0000 000000
2018-01-27 12:54:53,0.15,6.87,0.00,25.64,26.92,29.98,13.86,46.54,1026.40,2022.98,1599.10,1782.13,1991.16,599.95,596.40,60.09,0000 0000 0000 0000 000000